• Em Portugal
  • Lista de países
  • Para 7 dias
  • Temperatura da água
  • Mapas de satélite
  • Mapa do tempo
  • Widgets de tempo
  • user-avatar
    Iniciar Sessão

    Previsão horária em Grzepa

    Hoje, 24 Outubro, Quarta-feira

    Tempo Temperatura Precipitação Vento Pressão Humidade
    00:00 +5°C° 0.2 mm 7 m/s 741 mmHg 75%
    01:00 +5°C° 0.2 mm 7 m/s 741 mmHg 75%
    02:00 +5°C° 0.3 mm 8 m/s 741 mmHg 73%
    03:00 +5°C° 0.3 mm 8 m/s 741 mmHg 71%
    04:00 +3°C° 0.3 mm 9 m/s 742 mmHg 70%
    05:00 +3°C° 0.2 mm 9 m/s 742 mmHg 68%
    06:00 +3°C° 0.2 mm 9 m/s 743 mmHg 66%
    07:00 +2°C° 0.2 mm 9 m/s 744 mmHg 64%
    08:00 +3°C° 0.1 mm 10 m/s 744 mmHg 61%
    09:00 +4°C° 0.1 mm 11 m/s 745 mmHg 59%
    10:00 +4°C° 0.1 mm 12 m/s 746 mmHg 56%
    11:00 +4°C° 0.1 mm 11 m/s 747 mmHg 56%
    12:00 +6°C° 0.1 mm 11 m/s 747 mmHg 56%
    13:00 +6°C° 0.1 mm 11 m/s 748 mmHg 56%
    14:00 +6°C° 0 mm 11 m/s 748 mmHg 57%
    15:00 +5°C° 0 mm 10 m/s 749 mmHg 57%
    16:00 +5°C° 0 mm 9 m/s 750 mmHg 57%
    17:00 +5°C° 0 mm 9 m/s 750 mmHg 59%
    18:00 +5°C° 0 mm 8 m/s 751 mmHg 61%
    19:00 +4°C° 0 mm 7 m/s 751 mmHg 63%
    20:00 +4°C° 0 mm 6 m/s 752 mmHg 65%
    21:00 +4°C° 0 mm 6 m/s 752 mmHg 67%
    22:00 +5°C° 0 mm 5 m/s 752 mmHg 68%
    23:00 +3°C° 0 mm 5 m/s 752 mmHg 70%

    Amanhã, 25 Outubro, Quinta-feira

    Tempo Temperatura Precipitação Vento Pressão Humidade
    00:00 +3°C° 0 mm 5 m/s 752 mmHg 72%
    01:00 +3°C° 0 mm 4 m/s 752 mmHg 74%
    02:00 +3°C° 0 mm 4 m/s 751 mmHg 76%
    03:00 +2°C° 0 mm 5 m/s 751 mmHg 78%
    04:00 +2°C° 0 mm 5 m/s 750 mmHg 79%
    05:00 +3°C° 0.5 mm 5 m/s 749 mmHg 82%
    06:00 +3°C° 0.5 mm 6 m/s 748 mmHg 85%
    07:00 +3°C° 0.5 mm 6 m/s 747 mmHg 88%
    08:00 +5°C° 0.5 mm 6 m/s 746 mmHg 86%
    09:00 +6°C° 0.5 mm 7 m/s 745 mmHg 85%
    10:00 +9°C° 0.5 mm 7 m/s 745 mmHg 84%
    11:00 +9°C° 0.1 mm 8 m/s 744 mmHg 78%
    12:00 +8°C° 0.1 mm 9 m/s 744 mmHg 72%
    13:00 +10°C° 0.1 mm 9 m/s 744 mmHg 67%
    14:00 +8°C° 0.1 mm 9 m/s 744 mmHg 68%
    15:00 +9°C° 0.1 mm 8 m/s 745 mmHg 68%
    16:00 +9°C° 0.1 mm 8 m/s 745 mmHg 69%
    17:00 +8°C° 0 mm 7 m/s 746 mmHg 72%
    18:00 +8°C° 0 mm 7 m/s 746 mmHg 74%
    19:00 +6°C° 0 mm 7 m/s 746 mmHg 77%
    20:00 +7°C° 0 mm 6 m/s 747 mmHg 78%
    21:00 +7°C° 0 mm 6 m/s 747 mmHg 79%
    22:00 +7°C° 0 mm 6 m/s 747 mmHg 80%
    23:00 +7°C° 0 mm 6 m/s 747 mmHg 82%

    Depois de amanhã, 26 Outubro, Sexta-feira

    Tempo Temperatura Precipitação Vento Pressão Humidade
    00:00 +7°C° 0 mm 5 m/s 747 mmHg 83%
    01:00 +6°C° 0 mm 5 m/s 748 mmHg 85%
    02:00 +6°C° 0.1 mm 5 m/s 748 mmHg 85%
    03:00 +6°C° 0.1 mm 5 m/s 748 mmHg 86%
    04:00 +6°C° 0.1 mm 5 m/s 748 mmHg 86%
    05:00 +6°C° 0.1 mm 5 m/s 748 mmHg 86%
    06:00 +6°C° 0.1 mm 5 m/s 748 mmHg 85%
    07:00 +6°C° 0.1 mm 5 m/s 748 mmHg 85%
    08:00 +7°C° 0 mm 5 m/s 748 mmHg 81%
    09:00 +7°C° 0 mm 6 m/s 748 mmHg 78%
    10:00 +8°C° 0 mm 6 m/s 748 mmHg 74%
    11:00 +9°C° 0.1 mm 6 m/s 747 mmHg 72%
    12:00 +9°C° 0.1 mm 7 m/s 746 mmHg 70%
    13:00 +9°C° 0.1 mm 7 m/s 746 mmHg 68%
    14:00 +9°C° 0.5 mm 7 m/s 745 mmHg 73%
    15:00 +9°C° 0.5 mm 7 m/s 744 mmHg 78%
    16:00 +9°C° 0.5 mm 8 m/s 743 mmHg 83%
    17:00 +9°C° 0.1 mm 8 m/s 743 mmHg 83%
    18:00 +9°C° 0.1 mm 8 m/s 742 mmHg 82%
    19:00 +9°C° 0.1 mm 8 m/s 742 mmHg 82%
    20:00 +9°C° 0.5 mm 8 m/s 742 mmHg 82%
    21:00 +7°C° 0.5 mm 8 m/s 741 mmHg 82%
    22:00 +7°C° 0.5 mm 8 m/s 741 mmHg 81%
    23:00 +7°C° 0.5 mm 8 m/s 741 mmHg 81%

    27 Outubro, Sábado

    Tempo Temperatura Precipitação Vento Pressão Humidade
    00:00 +6°C° 0.5 mm 7 m/s 741 mmHg 80%
    01:00 +6°C° 0.5 mm 7 m/s 741 mmHg 80%
    02:00 +5°C° 0.5 mm 7 m/s 742 mmHg 79%
    03:00 +5°C° 0.5 mm 7 m/s 742 mmHg 79%
    04:00 +5°C° 0.5 mm 7 m/s 742 mmHg 79%
    05:00 +4°C° 0.1 mm 7 m/s 743 mmHg 79%
    06:00 +4°C° 0.1 mm 7 m/s 744 mmHg 79%
    07:00 +4°C° 0.1 mm 7 m/s 745 mmHg 79%
    08:00 +4°C° 0.1 mm 7 m/s 745 mmHg 75%
    09:00 +5°C° 0.1 mm 7 m/s 746 mmHg 72%
    10:00 +6°C° 0.1 mm 8 m/s 747 mmHg 68%
    11:00 +6°C° 0.2 mm 7 m/s 748 mmHg 67%
    12:00 +6°C° 0.2 mm 7 m/s 749 mmHg 65%
    13:00 +6°C° 0.2 mm 7 m/s 749 mmHg 64%
    14:00 +5°C° 0.1 mm 6 m/s 750 mmHg 65%
    15:00 +6°C° 0.1 mm 5 m/s 751 mmHg 67%
    16:00 +5°C° 0.1 mm 5 m/s 751 mmHg 68%
    17:00 +4°C° 0 mm 4 m/s 752 mmHg 71%
    18:00 +4°C° 0 mm 4 m/s 753 mmHg 74%
    19:00 +3°C° 0 mm 3 m/s 753 mmHg 77%
    20:00 +3°C° 0 mm 3 m/s 754 mmHg 78%
    21:00 +3°C° 0 mm 3 m/s 754 mmHg 79%
    22:00 +2°C° 0 mm 3 m/s 755 mmHg 80%
    23:00 +2°C° 0 mm 3 m/s 755 mmHg 81%

    28 Outubro, Domingo

    Tempo Temperatura Precipitação Vento Pressão Humidade
    00:00 +2°C° 0 mm 3 m/s 756 mmHg 81%
    01:00 +2°C° 0 mm 3 m/s 756 mmHg 82%
    02:00 +2°C° 0 mm 3 m/s 756 mmHg 82%
    03:00 +3°C° 0 mm 2 m/s 757 mmHg 83%
    04:00 +3°C° 0 mm 2 m/s 757 mmHg 83%
    05:00 +3°C° 0 mm 2 m/s 758 mmHg 83%
    06:00 +3°C° 0 mm 2 m/s 758 mmHg 82%
    07:00 +4°C° 0 mm 1 m/s 759 mmHg 82%
    08:00 +4°C° 0 mm 2 m/s 759 mmHg 77%
    09:00 +6°C° 0 mm 2 m/s 759 mmHg 72%
    10:00 +7°C° 0 mm 2 m/s 760 mmHg 67%
    11:00 +7°C° 0 mm 3 m/s 760 mmHg 64%
    12:00 +8°C° 0 mm 3 m/s 760 mmHg 61%
    13:00 +7°C° 0 mm 4 m/s 760 mmHg 59%
    14:00 +7°C° 0 mm 4 m/s 760 mmHg 61%
    15:00 +6°C° 0 mm 4 m/s 760 mmHg 64%
    16:00 +6°C° 0 mm 4 m/s 760 mmHg 67%
    17:00 +5°C° 0 mm 4 m/s 760 mmHg 67%
    18:00 +5°C° 0 mm 4 m/s 760 mmHg 68%
    19:00 +5°C° 0 mm 4 m/s 760 mmHg 69%
    20:00 +3°C° 0 mm 5 m/s 760 mmHg 68%
    21:00 +3°C° 0 mm 5 m/s 760 mmHg 67%
    22:00 +3°C° 0 mm 5 m/s 760 mmHg 66%
    23:00 +3°C° 0 mm 6 m/s 760 mmHg 66%

    29 Outubro, Segunda-feira

    Tempo Temperatura Precipitação Vento Pressão Humidade
    00:00 +3°C° 0 mm 6 m/s 760 mmHg 66%
    01:00 +3°C° 0 mm 7 m/s 759 mmHg 65%
    02:00 +3°C° 0.2 mm 7 m/s 759 mmHg 67%
    03:00 +1°C° 0.2 mm 8 m/s 758 mmHg 69%
    04:00 +1°C° 0.2 mm 8 m/s 758 mmHg 70%
    05:00 +1°C° 0.5 mm 9 m/s 758 mmHg 72%
    06:00 +1°C° 0.5 mm 9 m/s 757 mmHg 73%
    07:00 +1°C° 0.5 mm 10 m/s 757 mmHg 75%
    08:00 +1°C° 1.3 mm 10 m/s 756 mmHg 78%
    09:00 0°C° 1.3 mm 10 m/s 756 mmHg 81%
    10:00 0°C° 1.3 mm 10 m/s 755 mmHg 84%
    11:00 0°C° 1.4 mm 10 m/s 755 mmHg 86%
    12:00 0°C° 1.4 mm 10 m/s 754 mmHg 88%
    13:00 -2°C° 1.4 mm 10 m/s 754 mmHg 89%
    14:00 -2°C° 0.6 mm 10 m/s 753 mmHg 90%
    15:00 -2°C° 0.6 mm 10 m/s 753 mmHg 90%
    16:00 -2°C° 0.6 mm 10 m/s 752 mmHg 90%
    17:00 -2°C° 0.5 mm 10 m/s 752 mmHg 90%
    18:00 -2°C° 0.5 mm 10 m/s 752 mmHg 91%
    19:00 -1°C° 0.5 mm 9 m/s 752 mmHg 91%
    20:00 -1°C° 0.1 mm 9 m/s 752 mmHg 92%
    21:00 -1°C° 0.1 mm 8 m/s 751 mmHg 92%
    22:00 -1°C° 0.1 mm 8 m/s 751 mmHg 93%
    23:00 -1°C° 0.1 mm 8 m/s 751 mmHg 93%

    30 Outubro, Terça-feira

    Tempo Temperatura Precipitação Vento Pressão Humidade
    00:00 -1°C° 0.1 mm 7 m/s 751 mmHg 94%
    01:00 0°C° 0.1 mm 7 m/s 751 mmHg 94%
    02:00 0°C° 0.1 mm 7 m/s 751 mmHg 95%
    03:00 0°C° 0.1 mm 7 m/s 750 mmHg 95%
    04:00 0°C° 0.1 mm 7 m/s 750 mmHg 95%
    05:00 +2°C° 0.1 mm 7 m/s 750 mmHg 95%
    06:00 +2°C° 0.1 mm 7 m/s 750 mmHg 95%
    07:00 +3°C° 0.1 mm 7 m/s 749 mmHg 95%
    08:00 +4°C° 0 mm 7 m/s 749 mmHg 95%
    09:00 +5°C° 0 mm 7 m/s 749 mmHg 94%
    10:00 +6°C° 0 mm 8 m/s 748 mmHg 93%
    11:00 +8°C° 0.1 mm 7 m/s 748 mmHg 92%
    12:00 +10°C° 0.1 mm 7 m/s 748 mmHg 91%
    13:00 +11°C° 0.1 mm 7 m/s 748 mmHg 90%
    14:00 +11°C° 0 mm 6 m/s 748 mmHg 90%
    15:00 +11°C° 0 mm 6 m/s 748 mmHg 91%
    16:00 +12°C° 0 mm 5 m/s 748 mmHg 91%
    17:00 +12°C° 0.2 mm 5 m/s 749 mmHg 92%
    18:00 +12°C° 0.2 mm 4 m/s 749 mmHg 93%
    19:00 +11°C° 0.2 mm 3 m/s 749 mmHg 95%
    20:00 +11°C° 2.3 mm 3 m/s 749 mmHg 95%
    21:00 +11°C° 2.3 mm 3 m/s 749 mmHg 95%
    22:00 +10°C° 2.3 mm 3 m/s 749 mmHg 95%
    23:00 +10°C° 1.4 mm 3 m/s 749 mmHg 94%
    Mostrar mais